Location: Newark
(48.1500°N, 2.9667°W)
Time: 08:39:46
(UTC+00:00)

Tiros 1 - All Passes

Search period start: 27 January 2020 00:00
Search period end: 06 February 2020 00:00
Orbit: 630 x 664 km, 48.4° (Epoch: 26 January)

Date Brightness Start Highest point End Pass type
(mag) Time Alt. Az. Time Alt. Az. Time Alt. Az.
27 Jan - 11:49:29 10° SSW 11:53:28 28° SE 11:57:29 10° E daylight
27 Jan - 13:30:33 10° WSW 13:35:14 74° SSE 13:39:59 10° E daylight
27 Jan - 15:12:44 10° W 15:17:30 87° N 15:22:17 10° E daylight
27 Jan - 16:54:58 10° W 16:59:38 55° SSW 17:04:18 10° SE daylight
27 Jan - 18:37:59 10° W 18:41:10 18° SW 18:44:21 10° S visible
28 Jan - 10:35:30 10° SSE 10:37:52 14° SE 10:40:15 10° ESE daylight
28 Jan - 12:14:46 10° SW 12:19:15 47° SSE 12:23:47 10° E daylight
28 Jan - 13:56:36 10° W 14:01:18 89° N 14:06:06 10° E daylight
28 Jan - 15:38:50 10° W 15:43:35 80° SSW 15:48:22 10° ESE daylight
28 Jan - 17:21:12 10° W 17:25:28 34° SSW 17:29:47 10° SSE daylight
29 Jan - 10:59:35 10° SSW 11:03:27 26° SE 11:07:22 10° E daylight
29 Jan - 12:40:32 10° WSW 12:45:12 71° SSE 12:49:55 10° E daylight
29 Jan - 14:22:41 10° W 14:27:25 86° N 14:32:12 10° E daylight
29 Jan - 16:04:56 10° W 16:09:35 58° SSW 16:14:16 10° SE daylight
29 Jan - 17:47:49 10° W 17:51:09 19° SW 17:54:30 10° S visible
30 Jan - 09:45:51 10° SSE 09:47:53 13° SE 09:49:55 10° ESE daylight
30 Jan - 11:24:47 10° SW 11:29:13 45° SSE 11:33:42 10° E daylight
30 Jan - 13:06:33 10° W 13:11:15 89° S 13:16:00 10° E daylight
30 Jan - 14:48:47 10° W 14:53:31 82° SSW 14:58:18 10° ESE daylight
30 Jan - 16:31:07 10° W 16:35:26 36° SSW 16:39:48 10° SE daylight
31 Jan - 10:09:41 10° SSW 10:13:26 25° SE 10:17:14 10° E daylight
31 Jan - 11:50:30 10° WSW 11:55:09 69° SSE 11:59:51 10° E daylight
31 Jan - 13:32:39 10° W 13:37:21 86° N 13:42:08 10° E daylight
31 Jan - 15:14:52 10° W 15:19:32 60° SSW 15:24:14 10° ESE daylight
31 Jan - 16:57:41 10° W 17:01:08 20° SW 17:04:37 10° S daylight
01 Feb - 08:56:17 10° SSE 08:57:54 12° SE 08:59:31 10° ESE daylight
01 Feb - 10:34:48 10° SW 10:39:11 42° SSE 10:43:37 10° E daylight
01 Feb - 12:16:30 10° W 12:21:11 88° S 12:25:56 10° E daylight
01 Feb - 13:58:45 10° W 14:03:28 84° SSW 14:08:14 10° ESE daylight
01 Feb - 15:41:03 10° W 15:45:25 38° SSW 15:49:48 10° SE daylight
02 Feb - 09:19:48 10° SSW 09:23:26 23° SE 09:27:06 10° E daylight
02 Feb - 11:00:29 10° WSW 11:05:06 66° SSE 11:09:46 10° E daylight
02 Feb - 12:42:36 10° W 12:47:18 86° N 12:52:03 10° E daylight
02 Feb - 14:24:50 10° W 14:29:29 63° SSW 14:34:11 10° ESE daylight
02 Feb - 16:07:33 10° W 16:11:08 21° SW 16:14:43 10° S daylight
03 Feb - 08:06:54 10° SE 08:07:55 11° SE 08:08:56 10° ESE daylight
03 Feb - 09:44:50 10° SW 09:49:10 40° SSE 09:53:32 10° E daylight
03 Feb - 11:26:27 10° WSW 11:31:08 87° SSE 11:35:52 10° E daylight
03 Feb - 13:08:42 10° W 13:13:24 86° S 13:18:09 10° ESE daylight
03 Feb - 14:50:59 10° W 14:55:23 40° SSW 14:59:48 10° SE daylight
03 Feb - 16:35:38 10° WSW 16:36:39 11° SW 16:37:42 10° SW daylight
04 Feb - 08:29:56 10° S 08:33:26 22° SE 08:36:58 10° E daylight
04 Feb - 10:10:28 10° WSW 10:15:03 64° SSE 10:19:42 10° E daylight
04 Feb - 11:52:33 10° W 11:57:14 86° N 12:01:59 10° E daylight
04 Feb - 13:34:47 10° W 13:39:26 65° SSW 13:44:08 10° ESE daylight
04 Feb - 15:17:26 10° W 15:21:07 23° SW 15:24:49 10° SSE daylight
05 Feb - 08:54:52 10° SW 08:59:09 38° SSE 09:03:27 10° E daylight
05 Feb - 10:36:25 10° WSW 10:41:05 85° SSE 10:45:47 10° E daylight
05 Feb - 12:18:39 10° W 12:23:21 87° SSW 12:28:05 10° E daylight
05 Feb - 14:00:56 10° W 14:05:21 42° SSW 14:09:48 10° SE daylight
05 Feb - 15:45:05 10° WSW 15:46:40 12° SW 15:48:15 10° SSW daylight
